ASIASAT 4

Last updated on Tue Jul 08 2025 00:02:43 GMT+0000 (Coordinated Universal Time)

1 27718U 03014A 25188.52145450 -.00000209 00000+0 00000+0 0 9993 2 27718 3.8208 80.1258 0002165 37.1660 143.7073 1.00272402 41849
UTC large
Height (km)
Speed (km/s)
/
Latitude / Longitude
Inclination (degrees)
Orbital Period (minutes)
Azimuth
Elevation
Range (km)
Doppler Factor

Next 0 passes for location: London (51.5072 / 0.1276)

Sorry there are no passes over London.